User: anonymous   Login
Location: Cheching
(60.0667°N, 164.2167°W)
Time: 00:06:30
(UTC+00:00)
Language:

AO-73 - Orbit

View from above orbital plane
View from above orbital plane
View from above satellite
View from above satellite

Ground track
Ground track

The orbit data is extracted from the following two-line orbital elements,

1 39444U 13066AE  21023.57626184  .00000315  00000-0  44795-4 0  9999
2 39444  97.5721  17.8563 0056295 267.2546  92.2224 14.82298727385979
Epoch (UTC): 23 January 2021 13:49:49
Eccentricity: 0.0056295
inclination: 97.5721°
perigee height: 582 km
apogee height: 661 km
right ascension of ascending node: 17.8563°
argument of perigee: 267.2546°
revolutions per day: 14.82298727
mean anomaly at epoch: 92.2224°
orbit number at epoch: 38597

The dashed part of the orbit path shows where the satellite is in the earth's shadow,  

DLR